This is the latest recevied weather packets stored in our database for station/object N3LF. If no packets are shown the sender has not sent any weather packets the latest 10 day(s).
| Time | Temp. | Humidity | Pressure | Rain* | Wind** | Luminosity | Snow |
|---|---|---|---|---|---|---|---|
| 1788116362 | 35° C | 57% | 1021.3 hPa | 0 mm | - | 675 W/m² | - |
| 1788116058 | 33.89° C | 58% | 1021.4 hPa | 0 mm | - | 519 W/m² | - |
| 1788115753 | 33.89° C | 58% | 1021.4 hPa | 0 mm | - | 155 W/m² | - |
| 1788115452 | 35° C | 56% | 1021.4 hPa | 0 mm | - | 682 W/m² | - |
| 1788115151 | 34.44° C | 58% | 1021.7 hPa | 0 mm | - | 691 W/m² | - |
| 1788114846 | 33.89° C | 60% | 1021.6 hPa | 0 mm | - | 705 W/m² | - |
| 1788114541 | 35° C | 56% | 1021.8 hPa | 0 mm | - | 709 W/m² | - |
| 1788114237 | 34.44° C | 60% | 1021.7 hPa | 0 mm | - | 708 W/m² | - |
| 1788113933 | 33.89° C | 59% | 1021.8 hPa | 0 mm | - | 700 W/m² | - |
| 1788113629 | 33.33° C | 60% | 1021.5 hPa | 0 mm | - | 732 W/m² | - |
| 1788113323 | 33.33° C | 62% | 1021.7 hPa | 0 mm | - | 720 W/m² | - |
| 1788113023 | 33.89° C | 59% | 1022 hPa | 0 mm | - | 697 W/m² | - |
| 1788112722 | 35.56° C | 58% | 1021.8 hPa | 0 mm | - | 712 W/m² | - |
| 1788112417 | 33.89° C | 58% | 1022 hPa | 0 mm | - | 722 W/m² | - |
| 1788112112 | 35° C | 59% | 1022 hPa | 0 mm | - | 722 W/m² | - |
| 1788111807 | 33.89° C | 62% | 1022 hPa | 0 mm | - | 721 W/m² | - |
| 1788111507 | 33.89° C | 59% | 1022 hPa | 0 mm | - | 747 W/m² | - |
| 1788111203 | 35° C | 60% | 1022.1 hPa | 0 mm | - | 177 W/m² | - |
| 1788110899 | 34.44° C | 62% | 1022.2 hPa | 0 mm | - | 737 W/m² | - |
| 1788110596 | 33.89° C | 63% | 1022.2 hPa | 0 mm | - | 466 W/m² | - |
| 1788110291 | 33.89° C | 62% | 1022.3 hPa | 0 mm | - | 718 W/m² | - |
| 1788109986 | 33.89° C | 63% | 1022.3 hPa | 0 mm | - | 733 W/m² | - |
| 1788109681 | 33.33° C | 64% | 1022.3 hPa | 0 mm | - | 725 W/m² | - |
| 1788109392 | 33.33° C | 66% | 1022.4 hPa | 0 mm | - | 718 W/m² | - |
| 1788109079 | 32.78° C | 67% | 1022.3 hPa | 0 mm | - | 725 W/m² | - |
* Rain latest hour (hover to see other rain measurements)
** Current wind speed in m/s (hover to see current wind gust speed)